When you browse on this site, cookies collect data to enhance your experience and personalize the content and advertising you see.
Visit our Privacy Policy to learn more. By continuing to use the site, you agree to this use of cookies and data.
  • In Austria
  • List of Countries
  • For 7 days
  • Water Temperature
  • Satellite Maps
  • Weather Map
  • News
  • Weather Widgets
  • user-avatar
    Login

    Hourly Weather Stillwater

    Today, 23 July, Tuesday

    Time Temperature Precipitation Wind Pressure Humidity
    00:00 +21°C° 0 mm 4 mps 742 mmHg 77%
    01:00 +21°C° 0 mm 4 mps 742 mmHg 79%
    02:00 +20°C° 0 mm 4 mps 742 mmHg 82%
    03:00 +19°C° 0 mm 4 mps 742 mmHg 85%
    04:00 +19°C° 0 mm 4 mps 742 mmHg 87%
    05:00 +18°C° 0 mm 4 mps 742 mmHg 89%
    06:00 +18°C° 0 mm 4 mps 742 mmHg 91%
    07:00 +20°C° 0 mm 4 mps 742 mmHg 83%
    08:00 +22°C° 0 mm 5 mps 743 mmHg 75%
    09:00 +24°C° 0 mm 6 mps 743 mmHg 66%
    10:00 +26°C° 0 mm 5 mps 743 mmHg 60%
    11:00 +27°C° 0 mm 5 mps 743 mmHg 53%
    12:00 +29°C° 0 mm 5 mps 743 mmHg 46%
    13:00 +29°C° 0 mm 5 mps 742 mmHg 44%
    14:00 +30°C° 0 mm 4 mps 742 mmHg 41%
    15:00 +30°C° 0 mm 4 mps 741 mmHg 39%
    16:00 +29°C° 0 mm 4 mps 741 mmHg 42%
    17:00 +29°C° 0 mm 4 mps 741 mmHg 45%
    18:00 +28°C° 0 mm 4 mps 740 mmHg 47%
    19:00 +26°C° 0 mm 3 mps 740 mmHg 52%
    20:00 +24°C° 0 mm 3 mps 740 mmHg 57%
    21:00 +21°C° 0 mm 3 mps 741 mmHg 62%
    22:00 +20°C° 0 mm 3 mps 741 mmHg 68%
    23:00 +19°C° 0 mm 3 mps 741 mmHg 74%

    Tomorrow, 24 July, Wednesday

    Time Temperature Precipitation Wind Pressure Humidity
    00:00 +18°C° 0 mm 3 mps 741 mmHg 79%
    01:00 +18°C° 0 mm 2 mps 741 mmHg 82%
    02:00 +18°C° 0 mm 2 mps 741 mmHg 85%
    03:00 +17°C° 0 mm 2 mps 740 mmHg 88%
    04:00 +17°C° 0 mm 2 mps 741 mmHg 89%
    05:00 +17°C° 0 mm 2 mps 741 mmHg 89%
    06:00 +16°C° 0 mm 1 mps 741 mmHg 90%
    07:00 +20°C° 0 mm 1 mps 741 mmHg 82%
    08:00 +22°C° 0 mm 1 mps 742 mmHg 74%
    09:00 +24°C° 0 mm 1 mps 742 mmHg 66%
    10:00 +25°C° 0 mm 1 mps 742 mmHg 58%
    11:00 +27°C° 0 mm 1 mps 742 mmHg 51%
    12:00 +29°C° 0 mm 1 mps 741 mmHg 43%
    13:00 +29°C° 0 mm 1 mps 741 mmHg 40%
    14:00 +30°C° 0 mm 2 mps 740 mmHg 38%
    15:00 +31°C° 0 mm 2 mps 739 mmHg 35%
    16:00 +30°C° 0 mm 2 mps 739 mmHg 38%
    17:00 +30°C° 0 mm 3 mps 739 mmHg 40%
    18:00 +30°C° 0 mm 3 mps 738 mmHg 43%
    19:00 +28°C° 0 mm 3 mps 738 mmHg 48%
    20:00 +26°C° 0 mm 3 mps 738 mmHg 53%
    21:00 +22°C° 0 mm 3 mps 738 mmHg 58%
    22:00 +22°C° 0 mm 3 mps 738 mmHg 61%
    23:00 +21°C° 0 mm 3 mps 739 mmHg 64%

    Day after tomorrow, 25 July, Thursday

    Time Temperature Precipitation Wind Pressure Humidity
    00:00 +20°C° 0 mm 3 mps 739 mmHg 66%
    01:00 +20°C° 0 mm 3 mps 738 mmHg 68%
    02:00 +19°C° 0 mm 3 mps 738 mmHg 69%
    03:00 +19°C° 0 mm 2 mps 738 mmHg 71%
    04:00 +19°C° 0 mm 3 mps 738 mmHg 72%
    05:00 +19°C° 0 mm 3 mps 739 mmHg 73%
    06:00 +18°C° 0 mm 3 mps 739 mmHg 74%
    07:00 +21°C° 0 mm 3 mps 739 mmHg 67%
    08:00 +23°C° 0 mm 4 mps 739 mmHg 61%
    09:00 +27°C° 0 mm 5 mps 740 mmHg 54%
    10:00 +28°C° 0 mm 5 mps 740 mmHg 50%
    11:00 +29°C° 0 mm 5 mps 740 mmHg 46%
    12:00 +32°C° 0 mm 6 mps 739 mmHg 42%
    13:00 +32°C° 0 mm 6 mps 739 mmHg 41%
    14:00 +33°C° 0 mm 6 mps 739 mmHg 40%
    15:00 +33°C° 0 mm 5 mps 738 mmHg 39%
    16:00 +32°C° 0 mm 5 mps 738 mmHg 42%
    17:00 +30°C° 0 mm 5 mps 738 mmHg 45%
    18:00 +30°C° 0 mm 5 mps 738 mmHg 48%
    19:00 +28°C° 0 mm 5 mps 738 mmHg 52%
    20:00 +26°C° 0 mm 4 mps 738 mmHg 55%
    21:00 +23°C° 0 mm 4 mps 738 mmHg 59%
    22:00 +23°C° 0 mm 4 mps 738 mmHg 58%
    23:00 +24°C° 0 mm 3 mps 739 mmHg 57%

    26 July, Friday

    Time Temperature Precipitation Wind Pressure Humidity
    00:00 +24°C° 0 mm 3 mps 739 mmHg 57%
    01:00 +24°C° 0 mm 3 mps 739 mmHg 58%
    02:00 +22°C° 0 mm 3 mps 739 mmHg 60%
    03:00 +23°C° 0 mm 2 mps 739 mmHg 62%
    04:00 +22°C° 0 mm 3 mps 739 mmHg 65%
    05:00 +21°C° 0 mm 3 mps 739 mmHg 68%
    06:00 +21°C° 0 mm 4 mps 739 mmHg 70%
    07:00 +22°C° 0 mm 4 mps 739 mmHg 68%
    08:00 +25°C° 0 mm 5 mps 740 mmHg 65%
    09:00 +26°C° 0 mm 5 mps 740 mmHg 62%
    10:00 +28°C° 0 mm 5 mps 740 mmHg 55%
    11:00 +30°C° 0 mm 5 mps 740 mmHg 48%
    12:00 +33°C° 0 mm 6 mps 740 mmHg 42%
    13:00 +34°C° 0 mm 6 mps 740 mmHg 40%
    14:00 +34°C° 0 mm 6 mps 739 mmHg 38%
    15:00 +35°C° 0 mm 6 mps 739 mmHg 36%
    16:00 +34°C° 0 mm 6 mps 739 mmHg 40%
    17:00 +33°C° 0 mm 6 mps 739 mmHg 43%
    18:00 +32°C° 0 mm 6 mps 738 mmHg 47%
    19:00 +30°C° 0 mm 6 mps 739 mmHg 51%
    20:00 +28°C° 0 mm 5 mps 739 mmHg 56%
    21:00 +26°C° 0 mm 5 mps 739 mmHg 60%
    22:00 +26°C° 0 mm 5 mps 739 mmHg 62%
    23:00 +25°C° 0 mm 5 mps 739 mmHg 64%

    27 July, Saturday

    Time Temperature Precipitation Wind Pressure Humidity
    00:00 +23°C° 0 mm 4 mps 739 mmHg 66%
    01:00 +23°C° 0 mm 4 mps 739 mmHg 69%
    02:00 +22°C° 0 mm 4 mps 739 mmHg 72%
    03:00 +21°C° 0 mm 3 mps 739 mmHg 74%
    04:00 +21°C° 0 mm 4 mps 739 mmHg 74%
    05:00 +21°C° 0 mm 4 mps 739 mmHg 73%
    06:00 +21°C° 0 mm 4 mps 740 mmHg 73%
    07:00 +23°C° 0 mm 5 mps 740 mmHg 67%
    08:00 +26°C° 0 mm 5 mps 740 mmHg 61%
    09:00 +28°C° 0 mm 6 mps 740 mmHg 54%
    10:00 +30°C° 0 mm 6 mps 740 mmHg 50%
    11:00 +33°C° 0 mm 6 mps 740 mmHg 46%
    12:00 +34°C° 0 mm 7 mps 740 mmHg 42%
    13:00 +35°C° 0 mm 6 mps 739 mmHg 40%
    14:00 +36°C° 0 mm 6 mps 739 mmHg 38%
    15:00 +36°C° 0 mm 6 mps 739 mmHg 36%
    16:00 +36°C° 0 mm 6 mps 738 mmHg 38%
    17:00 +35°C° 0 mm 6 mps 738 mmHg 40%
    18:00 +35°C° 0 mm 5 mps 738 mmHg 42%
    19:00 +33°C° 0 mm 6 mps 738 mmHg 46%
    20:00 +30°C° 0 mm 6 mps 738 mmHg 51%
    21:00 +28°C° 0 mm 7 mps 738 mmHg 55%
    22:00 +28°C° 0 mm 7 mps 739 mmHg 57%
    23:00 +27°C° 0 mm 6 mps 739 mmHg 59%

    28 July, Sunday

    Time Temperature Precipitation Wind Pressure Humidity
    00:00 +26°C° 0 mm 6 mps 739 mmHg 62%
    01:00 +26°C° 0 mm 6 mps 739 mmHg 63%
    02:00 +26°C° 0 mm 5 mps 739 mmHg 64%
    03:00 +25°C° 0 mm 5 mps 738 mmHg 65%
    04:00 +25°C° 0 mm 5 mps 738 mmHg 68%
    05:00 +23°C° 0 mm 4 mps 738 mmHg 72%
    06:00 +23°C° 0 mm 4 mps 738 mmHg 76%
    07:00 +26°C° 0 mm 5 mps 739 mmHg 69%
    08:00 +28°C° 0 mm 6 mps 739 mmHg 63%
    09:00 +32°C° 0 mm 7 mps 739 mmHg 56%
    10:00 +33°C° 0 mm 7 mps 739 mmHg 50%
    11:00 +35°C° 0 mm 7 mps 739 mmHg 45%
    12:00 +36°C° 0 mm 7 mps 738 mmHg 39%
    13:00 +38°C° 0 mm 7 mps 738 mmHg 37%
    14:00 +38°C° 0 mm 6 mps 737 mmHg 35%
    15:00 +39°C° 0 mm 6 mps 737 mmHg 34%
    16:00 +38°C° 0 mm 6 mps 737 mmHg 36%
    17:00 +36°C° 0 mm 6 mps 736 mmHg 38%
    18:00 +36°C° 0 mm 5 mps 736 mmHg 40%
    19:00 +34°C° 0 mm 5 mps 736 mmHg 44%
    20:00 +32°C° 0 mm 5 mps 736 mmHg 48%
    21:00 +30°C° 0 mm 5 mps 736 mmHg 53%
    22:00 +30°C° 0 mm 6 mps 736 mmHg 52%
    23:00 +30°C° 0 mm 6 mps 736 mmHg 52%
    Show more